ONEWEB-0704

operational
NORAD ID: 61609 Int'l Des: 2024-188 Owner: ONEWEBE Country: UK Constellation: oneweb
LEOCIRCULARPOLARONEWEB_TYPE

关于 ONEWEB-0704

正在加载描述...

实时位置

正在加载3D地球...

即将过境

高度历史

Altitude vs Time

uPlot chart will show altitude changes over time

两行轨道根数

1 61609U 24188R 25251.61570420 .00000524 00000-0 14657-2 0 9991
2 61609 87.8768 92.3623 0001483 121.1518 238.9755 13.10375078 46417
Epoch: Sep 8, 2025 • Age: 13 hours

当前状态

高度 1247.0 km
速度 7.23 km/s
星下点 -62.94°S, 50.42°E
发射日期 Oct 20, 2024
运行时间 0.8 years
类型 internet

技术详情

分类 Payload
质量 148.00 kg
干质量 140.00 kg
总质量 148.00 kg
长度 1.30 m
直径 1.00 m
跨度 5.00 m
形状 Trapezoid+2 pan
制造商 ONEWUS
平台类型 ARROW
阶段状态 In Orbit
所有者/国家 ONEWEBE/UK

大型星座

Loading constellations...